Tracking 25710 objects as of 5-Jul-2022
HD Live streaming from Space Station
objects crossing your sky now

FENGYUN 1C DEB

Track FENGYUN 1C DEB now!
10-day predictions


NORAD ID: 31886
Int'l Code: 1999-025CKM
Perigee: 788.3 km
Apogee: 868.6 km
Inclination: 99.2 °
Period: 101.3 minutes
Semi major axis: 7199 km
RCS: 0.0012 m2 (small)
Launch date: May 10, 1999
Source: People's Republic of China (PRC)
Launch site: Taiyaun Space Center, China (TSC)

Note: This is SATELLITE DEBRIS
aabbcc
Your satellite tracking list
Your tracking list is empty




NASA's NSSDC Master Catalog

Two Line Element Set (TLE):
1 31886U 99025CKM 22182.50445386  .00001752  00000-0  81459-3 0  9996
2 31886  99.2143  21.3124 0055775 278.5581  80.9277 14.21192003774097
Source of the keplerian elements: AFSPC